FW3145 Weather Reports


Display with metric or nautical units.
time (UTC)temp
F
wind
direction
speed
MPH
gust
MPH
rain 1hr
in
rain 24hr
in
rain mn
in
humidity
%
barometer
mb
20260906061600 72 108 0.0 0.0 0.00 0.00 0.00 78 1018.0
20260906054551 67 108 0.0 0.0 0.00 0.00 0.00 80 1017.7
20260906053046 65 336 0.0 0.0 0.00 0.00 0.00 80 1017.5
20260906051545 64 336 0.0 0.0 0.00 0.00 0.00 81 1017.5
20260906050043 64 336 0.0 0.0 0.00 0.00 0.00 81 1017.5
20260906044538 64 336 0.0 0.0 0.00 0.00 0.00 81 1017.5
20260906043037 64 344 0.0 0.0 0.00 0.00 0.00 81 1017.3
20260906041542 64 344 0.0 0.0 0.00 0.00 0.00 81 1017.2
20260906040043 65 344 0.0 0.0 0.00 0.00 0.00 81 1017.1
20260906034535 65 344 0.0 0.0 0.00 0.00 0.00 81 1017.0
20260906033033 65 344 0.0 0.0 0.00 0.00 0.00 81 1017.0
20260906031532 65 344 0.0 0.0 0.00 0.00 0.00 81 1017.1
20260906030031 65 344 0.0 0.0 0.00 0.00 0.00 80 1017.1
20260906024531 65 344 0.0 0.0 0.00 0.00 0.00 81 1017.2
20260906023032 65 344 0.0 0.0 0.00 0.00 0.00 80 1017.3
20260906021527 66 344 0.0 0.0 0.00 0.00 0.00 80 1017.2
20260906020024 66 344 0.0 0.0 0.00 0.00 0.00 80 1017.0
20260906014532 66 344 0.0 0.0 0.00 0.00 0.00 80 1017.1
20260906013020 67 343 0.0 0.0 0.00 0.00 0.00 80 1017.1
20260906011519 68 343 0.0 0.0 0.00 0.00 0.00 80 1017.1
20260906010017 68 344 0.0 0.0 0.00 0.00 0.00 79 1017.1
20260906004517 68 346 0.0 0.0 0.00 0.00 0.00 79 1017.2
20260906003016 68 345 0.0 0.0 0.00 0.00 0.00 78 1017.2
20260906001515 68 345 0.0 0.0 0.00 0.00 0.00 78 1017.3
20260906000015 69 345 0.0 0.0 0.00 0.00 0.00 77 1017.1
20260905234514 69 345 0.0 0.0 0.00 0.00 0.00 77 1017.2
20260905233013 68 345 0.0 0.0 0.00 0.00 0.00 75 1017.2
20260905231512 68 343 0.0 0.0 0.00 0.00 0.00 74 1017.2
20260905230011 69 342 0.0 0.0 0.00 0.00 0.00 72 1017.1
20260905224516 69 341 0.0 0.0 0.00 0.00 0.00 73 1017.2
20260905223008 70 342 0.0 0.0 0.00 0.00 0.00 73 1017.2
20260905221512 70 341 0.0 0.0 0.00 0.00 0.00 74 1017.1
20260905220002 71 339 0.0 0.0 0.00 0.00 0.00 74 1017.1
20260905214501 72 340 0.0 0.0 0.00 0.00 0.00 73 1017.1
20260905213001 72 339 0.0 0.0 0.00 0.00 0.00 71 1017.1
20260905211600 72 349 0.0 0.0 0.00 0.00 0.00 69 1017.1
20260905210059 72 355 0.0 0.0 0.00 0.00 0.00 67 1017.0
20260905204559 72 360 0.0 0.0 0.00 0.00 0.00 65 1017.0
20260905203101 73 5 0.0 0.0 0.00 0.00 0.00 63 1017.1
20260905201608 73 9 0.0 0.0 0.00 0.00 0.00 60 1017.1
20260905194557 74 5 0.0 0.0 0.00 0.00 0.00 59 1016.9
20260905193057 74 360 0.0 0.0 0.00 0.00 0.00 56 1016.9
20260905191557 76 355 0.0 0.0 0.00 0.00 0.00 55 1016.8
20260905190115 78 15 0.0 0.0 0.00 0.00 0.00 54 1016.7
20260905184611 78 55 0.0 0.0 0.00 0.00 0.00 53 1016.5
20260905183055 77 49 0.0 0.0 0.00 0.00 0.00 57 1016.5
20260905181553 77 49 0.0 0.0 0.00 0.00 0.00 55 1016.4
20260905180055 79 74 0.0 0.0 0.00 0.00 0.00 52 1016.2
20260905174557 79 77 0.0 0.0 0.00 0.00 0.00 51 1015.9
20260905173052 81 257 0.0 0.0 0.00 0.00 0.00 51 1015.7
20260905171552 84 257 0.0 0.0 0.00 0.00 0.00 48 1015.6
20260905170055 85 266 0.0 0.0 0.00 0.00 0.00 43 1015.6
20260905164551 86 277 0.0 0.0 0.00 0.00 0.00 49 1015.6
20260905163050 87 287 0.0 0.0 0.00 0.00 0.00 47 1015.4
20260905161552 88 270 0.0 0.0 0.00 0.00 0.00 48 1015.4
20260905160049 88 284 0.0 0.0 0.00 0.00 0.00 47 1015.4
20260905154552 89 269 0.0 0.0 0.00 0.00 0.00 44 1015.4
20260905153047 90 257 0.0 0.0 0.00 0.00 0.00 41 1015.4
20260905151547 92 281 0.0 0.0 0.00 0.00 0.00 38 1015.5
20260905150046 92 259 0.0 0.0 0.00 0.00 0.00 34 1015.5
20260905144546 93 235 0.0 0.0 0.00 0.00 0.00 32 1015.4
20260905143045 94 284 0.0 0.0 0.00 0.00 0.00 32 1015.4
20260905141547 94 281 0.0 0.0 0.00 0.00 0.00 32 1015.4
20260905140046 94 251 0.0 0.0 0.00 0.00 0.00 32 1015.4
20260905134542 94 266 0.0 0.0 0.00 0.00 0.00 33 1015.5
20260905133040 94 238 0.0 0.0 0.00 0.00 0.00 34 1015.5
20260905131556 94 257 0.0 0.0 0.00 0.00 0.00 37 1015.6
20260905130040 94 176 0.0 0.0 0.00 0.00 0.00 37 1015.6
20260905124546 94 265 0.0 0.0 0.00 0.00 0.00 39 1015.7
20260905123044 94 164 0.0 0.0 0.00 0.00 0.00 40 1015.8
20260905121534 93 162 0.0 0.0 0.00 0.00 0.00 41 1016.1
20260905120130 93 171 0.0 0.0 0.00 0.00 0.00 41 1016.2
20260905114538 92 180 0.0 0.0 0.00 0.00 0.00 43 1016.3
20260905113024 91 175 0.0 0.0 0.00 0.00 0.00 45 1016.4
20260905111527 91 153 0.0 0.0 0.00 0.00 0.00 44 1016.5
20260905110020 90 182 0.0 0.0 0.00 0.00 0.00 46 1016.5
20260905104518 89 153 0.0 0.0 0.00 0.00 0.00 45 1016.6
20260905103027 89 179 0.0 0.0 0.00 0.00 0.00 45 1016.7
20260905101524 89 136 0.0 0.0 0.00 0.00 0.00 45 1016.8
20260905100013 88 289 0.0 0.0 0.00 0.00 0.00 45 1017.0
20260905094506 87 147 0.0 0.0 0.00 0.00 0.00 47 1017.2
20260905093002 86 150 0.0 0.0 0.00 0.00 0.00 45 1017.3
20260905091616 85 170 0.0 0.0 0.00 0.00 0.00 50 1017.4
20260905090054 83 119 0.0 0.0 0.00 0.00 0.00 49 1017.4
20260905084604 82 196 0.0 0.0 0.00 0.00 0.00 51 1017.3
20260905083046 82 160 0.0 0.0 0.00 0.00 0.00 53 1017.1
20260905081541 80 163 0.0 0.0 0.00 0.00 0.00 56 1017.0
20260905080037 79 163 0.0 0.0 0.00 0.00 0.00 56 1016.9
20260905074533 77 148 0.0 0.0 0.00 0.00 0.00 59 1016.9
20260905073033 76 138 0.0 0.0 0.00 0.00 0.00 60 1016.9
20260905071525 75 135 0.0 0.0 0.00 0.00 0.00 62 1016.8
20260905070020 74 147 0.0 0.0 0.00 0.00 0.00 63 1016.8
20260905064516 74 231 0.0 0.0 0.00 0.00 0.00 63 1016.8
20260905063011 72 258 0.0 0.0 0.00 0.00 0.00 67 1016.8